TANDEM-X                
1 36605U 10030A   19263.69432740 -.00000082  00000-0 -73151-6 0  9995
2 36605  97.4467 269.5912 0002071  88.8051 271.3421 15.19151236512937
SL-24 R/B               
1 36606U 10030B   19264.48787938  .00000016  00000-0  96535-5 0  9991
2 36606  97.4468 162.9683 0437607 111.6733 253.1637 14.24197235480563